User: anonymous   Login
Location: Bratsk-Energetik
(56.3300°N, 101.7600°E)
Time: 14:14:55
(UTC+08:00)
Language:

ISS - Orbit

View from above orbital plane
View from above orbital plane
View from above satellite
View from above satellite

Ground track
Ground track

The orbit data is extracted from the following two-line orbital elements,

1 25544U 98067A   17121.15493125  .00016717  00000-0  10270-3 0  9032
2 25544  51.6412 272.7350 0005466 109.8512 250.3230 15.53952526 14434
Epoch (UTC): 01 May 2017 03:43:06
Eccentricity: 0.0005466
inclination: 51.6412°
perigee height: 401 km
apogee height: 409 km
right ascension of ascending node: 272.7350°
argument of perigee: 109.8512°
revolutions per day: 15.53952526
mean anomaly at epoch: 250.3230°
orbit number at epoch: 1443

The dashed part of the orbit path shows where the satellite is in the earth's shadow,  

DLR